Погода в Болонье

Италия     44°30′17″N   11°20′42″E
темп.,
°C
ветер,
м/с
пор.,
м/с
влажн.,
%
обл.,
%
осадки,
мм/ч
давл.,
гПа
погр.,
м
7 мая, пт
пт723:00+12ююз22795 0.0 100934
02:00+14ююз237198 0.0 1008181
05:00+12ююз238396 0.0 100654
08:00+15зсз1175100 0.0 1007129
11:00+16сз247468 0.0 1008331
14:00+20ссз346490 0.1 10071097
17:00+21з3458100 0.3 10071290
20:00+17ю2272100 0.3 100930
8 мая, сб
сб823:00+14ююв1384100 0.0 101276
02:00+12всв239579 0.1 101595
05:00+12в5994100 0.7 1017572
08:00+11в3895100 1.1 1020545
11:00+12в358799 0.0 1021521
14:00+13в227987 0.1 1021723
17:00+16в226972 0.0 1020935
20:00+15в117399 0.1 102011
9 мая, вс
вс923:00+12в12805 0.0 102116
02:00+10ююз12885 0.0 102111
05:00+9ююз11900 0.0 102012
08:00+13ююз00793 0.0 1020174
11:00+17св226210 0.0 1020888
14:00+20всв32574 0.0 10181042
17:00+21всв345699 0.0 10171244
20:00+15в347691 0.0 101770
10 мая, пн
пн1023:00+13ю22847 0.0 101818
02:00+12ююв12885 0.0 101713
05:00+11з019097 0.0 101710
08:00+15вюв018022 0.0 1018145
11:00+20ссв32642 0.0 1017646
14:00+24всв45515 0.0 10151271
17:00+24вюв685591 0.0 10141025
20:00+18вюв4777100 0.0 1014161
11 мая, вт
вт1123:00+17ю2272100 0.0 101432
02:00+13юз22764 0.0 101418
05:00+13ююв2272100 0.0 101318
08:00+15зсз2374100 0.0 1014162
11:00+14вюв4892100 6.0 1013413
14:00+18ююв2779100 6.2 1011531
17:00+18юв4117834 2.7 10091087
20:00+14з349398 5.9 1008133